Regional Weather Roundup
Issued by NWS Upton, NY

Home | Current Version | Previous Version | Text Only | Print | Product List | Glossary On
Versions: 1 2 3 4 5 6 7 8 9 10 11 12 13 14 15 16 17 18 19 20 21 22 23 24 25 26 27 28 29 30 31 32 33 34 35 36 37 38 39 40 41 42 43 44 45 46 47 48 49 50
000
ASUS41 KOKX 172105
RWROKX

REGIONAL WEATHER ROUNDUP
NATIONAL WEATHER SERVICE NEW YORK NY
500 PM EDT WED SEP 17 2014

NOTE: "FAIR" INDICATES FEW OR NO CLOUDS BELOW 12,000 FEET WITH NO
SIGNIFICANT WEATHER AND/OR OBSTRUCTIONS TO VISIBILITY.

NYZ071-072-176-178-NJZ106-104-172200-
NEW YORK CITY METRO AREA


CITY           SKY/WX    TMP DP  RH WIND       PRES   REMARKS
CENTRAL PARK   SUNNY     70  42  36 VRB3      29.98S
LAGUARDIA APRT MOSUNNY   72  41  32 W6        29.95S
KENNEDY INTL   MOSUNNY   72  43  35 SW8       29.96F
NEWARK/LIBERTY MOSUNNY   74  43  32 NW8       29.96S
BRNX BOT. GARD   N/A     72  41  33 W2        29.97F
TETERBORO      SUNNY     73  39  29 W10       29.94F
$$

NYZ177-179-078>081-172200-
LONG ISLAND NEW YORK

CITY           SKY/WX    TMP DP  RH WIND       PRES   REMARKS
FARMINGDALE    SUNNY     69  49  48 S10       29.97S
ISLIP          MOSUNNY   68  47  46 SW7       29.96R
SHIRLEY        SUNNY     71  42  35 MISG      29.97S
WESTHAMPTON    MOSUNNY   69  45  41 S6        29.98S
MONTAUK POINT    N/A     69  48  47 SW6       29.97F
$$

NYZ052-065-067-172200-
HUDSON VALLEY

CITY           SKY/WX    TMP DP  RH WIND       PRES   REMARKS
WHITE PLAINS   MOSUNNY   70  41  34 NW5       29.96S
NEWBURGH       MOSUNNY   68  45  42 NW9       29.98F
MONTGOMERY     PTSUNNY   70  45  40 NW7       29.96S
POUGHKEEPSIE   SUNNY     68  42  38 W5        29.95F
ALBANY         PTSUNNY   65  45  48 NW8       29.97S
$$

NJZ001-105-106-008-010-013-015-019>022-104-172200-
NEW JERSEY

CITY           SKY/WX    TMP DP  RH WIND       PRES   REMARKS
NEWARK/LIBERTY MOSUNNY   74  43  32 NW8       29.96S
TETERBORO      SUNNY     73  39  29 W10       29.94F
CALDWELL       MOSUNNY   71  40  32 NW6       29.97S
MORRISTOWN     MOSUNNY   72  43  35 W10       29.97S
SOMERVILLE     SUNNY     72  44  36 NW7       29.95S
LINDEN         FAIR      76  46  33 W6        29.97F
SUSSEX         PTSUNNY   72  46  39 NE3       29.97S
ANDOVER          N/A     67  46  47 CALM      29.98S
TRENTON        MOSUNNY   72  43  35 NW6       29.96S
MILLVILLE      PTSUNNY   69  50  50 CALM      29.97R
ATLANTIC CITY  MOSUNNY   69  54  58 E9        29.98R
WRIGHTSTOWN    SUNNY     72  46  40 VRB3      29.95S
TOMS RIVER     SUNNY     66  52  59 SE3       29.98S
BELMAR         SUNNY     68  48  49 SE9       29.97S
$$

PAZ047>061-062-071-172200-
EASTERN PENNSYLVANIA

CITY           SKY/WX    TMP DP  RH WIND       PRES   REMARKS
PHILADELPHIA   MOSUNNY   74  46  36 CALM      29.97S
ALLENTOWN      SUNNY     71  43  36 W7        29.97S
SCRANTON       MOSUNNY   67  41  38 SW10      29.98R
$$

CTZ002-004>006-009-010-012-RIZ004-006-007-MAZ004-011-015-172200-
SOUTHERN NEW ENGLAND
 IN CT

CITY           SKY/WX    TMP DP  RH WIND       PRES   REMARKS
BRADLEY INTL   MOSUNNY   70  43  37 N7        29.95F
HARTFORD       PTSUNNY   69  41  36 W9        29.95S
DANBURY        MOSUNNY   68  44  42 NW7       29.98S
WTRBRY/OXFORD  MOSUNNY   64  43  45 NW7       29.99R
BRIDGEPORT     SUNNY     71  47  42 SW10      29.96S
MERIDEN        PTSUNNY   71  41  33 NW9       29.95F
NEW HAVEN      SUNNY     70  47  43 S6        29.97S
CHESTER        FAIR      66  48  52 SW7       29.97R
GROTON         SUNNY     67  48  50 SW10      29.95S
WILLIMANTIC    PTSUNNY   70  42  36 W6        29.95F

 IN RI

CITY           SKY/WX    TMP DP  RH WIND       PRES   REMARKS
PROVIDENCE     MOSUNNY   69  46  43 SE13      29.94F
BLOCK ISLAND   SUNNY     66  46  48 SW9       29.97S
WESTERLY       SUNNY     69  43  38 SW8       29.96F

 IN MA

CITY           SKY/WX    TMP DP  RH WIND       PRES   REMARKS
BOSTON         MOSUNNY   66  50  56 SE12      29.94S
WORCESTER      MOSUNNY   62  45  53 NW5       29.97S
WESTFIELD      MOSUNNY   67  41  38 W6        29.96S
PROVINCETOWN   MOSUNNY   68  54  60 S7        29.95F
NANTUCKET      SUNNY     66  55  67 S9        29.96F
$$

ANZ330-335-338-340-345-350-353-355-172200-
COASTAL MARINE OBSERVATIONS


STATION/POSITION TIME  SKY/WX   TEMP    WIND        PRES    VSBY  WAVE
                                AIR SEA DIR/SP/G                  HT/PER
                 (UTC)          (F)     (DEG/KT/KT) (MB)    (MI)  (FT/S)
NY HARB ENTRANCE NOT AVBL
4S FIRE IS       NOT AVBL
23SW MTP         2100                                 N/A           4/13
HUDSON CANYON    2100            66 75  350/  8/ 10 1014.9          4/12
EXECUTION ROCKS  2100            76 72  130/  4/  6   N/A
WESTERN LI SOUND 2100            69     200/  4/  6   N/A           0
CENTRAL LI SOUND 2000            66 71  220/  8/ 10   N/A           1
EASTERN LI SOUND 2000            68 69  250/  8/ 12   N/A
ROBBINS REEF     2100            69     170/  3/  4 1013.3
$$


>>>>>>>>>>>>>>>>>>>>>>>>>>>> KEY <<<<<<<<<<<<<<<<<<<<<<<<<<<
>                                                          <
>     SKY/WX - SKY CONDITION/PRESENT WEATHER               <
>     TMP    - TEMPERATURE IN FAHRENHEIT                   <
>     DP     - DEWPOINT IN FAHRENHEIT                      <
>     RH     - RELATIVE HUMIDITY IN PERCENT                <
>     WIND   - DIRECTION AND SPEED IN MPH                  <
>     PRES   - MEAN SEA LEVEL PRESSURE IN INCHES OF HG     <
>     WCI    - WIND CHILL INDEX                            <
>     VSB    - VISIBILITY IN MILES                         <
>     HX     - HEAT INDEX                                  <
>     TC     - TEMPERATURE IN CELSIUS                      <
>     VRB    - VARIABLE WIND DIRECTION                     <
>                                                          <
>>>>>>>>>>>>>>>>>>>>>>>>>>>> KEY <<<<<<<<<<<<<<<<<<<<<<<<<<<




USA.gov is the U.S. government's official web portal to all federal, state and local government web resources and services.